UPS2917 KONT-KDFW

Flight info

Callsign UPS2917
Flight time 2h 14m
Altitude 37000
Route RAJEE4 MTBAL CNERY BLH J169 TFD J50 SSO J4 INK GEEKY BOOVE7
Aircraft MD11/H-SDE1E2E3FGHIJ2J3J4J5M1RWXY/LB1D1

Departure

Time 2026-05-03 23:40
Airport Ontario International Airport (KONT)

Arrival

Time 2026-05-04 01:54
Airport Dallas Fort Worth International Airport (KDFW)
Time Latitude Longitude Altitude Speed Heading
2026-05-03 23:06 34.05032 -117.58161 952 ft 0 kts 270°
2026-05-03 23:24 34.05032 -117.58151 950 ft 4 kts 270°
2026-05-03 23:24 34.05032 -117.58121 950 ft 2 kts 270°
2026-05-03 23:24 34.05030 -117.58095 952 ft 4 kts 298°
2026-05-03 23:25 34.05017 -117.58076 952 ft 4 kts 343°
2026-05-03 23:25 34.04992 -117.58072 952 ft 4 kts
2026-05-03 23:25 34.04980 -117.58072 952 ft 0 kts
2026-05-03 23:32 34.04983 -117.58072 949 ft 2 kts
2026-05-03 23:33 34.05010 -117.58072 952 ft 5 kts
2026-05-03 23:33 34.05036 -117.58072 949 ft 3 kts
2026-05-03 23:33 34.05053 -117.58072 952 ft 2 kts
2026-05-03 23:33 34.05070 -117.58071 949 ft 2 kts
2026-05-03 23:34 34.05089 -117.58071 952 ft 5 kts
2026-05-03 23:34 34.05137 -117.58071 950 ft 8 kts
2026-05-03 23:34 34.05196 -117.58071 949 ft 8 kts 359°
2026-05-03 23:34 34.05236 -117.58102 952 ft 7 kts 298°
2026-05-03 23:35 34.05245 -117.58178 949 ft 10 kts 277°
2026-05-03 23:35 34.05274 -117.58244 948 ft 9 kts 315°
2026-05-03 23:35 34.05333 -117.58271 951 ft 8 kts 354°
2026-05-03 23:35 34.05357 -117.58272 952 ft 0 kts 358°
2026-05-03 23:36 34.05368 -117.58272 952 ft 5 kts 358°
2026-05-03 23:37 34.05417 -117.58274 949 ft 7 kts 359°
2026-05-03 23:37 34.05448 -117.58274 950 ft 6 kts 359°
2026-05-03 23:37 34.05483 -117.58281 952 ft 4 kts 333°
2026-05-03 23:37 34.05495 -117.58313 952 ft 5 kts 283°
2026-05-03 23:38 34.05497 -117.58346 952 ft 0 kts 271°
2026-05-03 23:38 34.05497 -117.58362 952 ft 7 kts 270°
2026-05-03 23:39 34.05497 -117.58635 950 ft 72 kts 270°
2026-05-03 23:39 34.05498 -117.59480 951 ft 124 kts 270°
2026-05-03 23:39 34.05497 -117.60732 959 ft 173 kts 270°
2026-05-03 23:39 34.05477 -117.62162 1440 ft 181 kts 263°
2026-05-03 23:40 34.05103 -117.63505 2112 ft 186 kts 233°
2026-05-03 23:40 34.04036 -117.64361 2840 ft 196 kts 192°
2026-05-03 23:40 34.02678 -117.64115 3695 ft 203 kts 154°
2026-05-03 23:40 34.01502 -117.63150 4557 ft 212 kts 143°
2026-05-03 23:41 34.00336 -117.61974 5169 ft 226 kts 141°
2026-05-03 23:41 33.99096 -117.60670 5668 ft 245 kts 140°
2026-05-03 23:41 33.97757 -117.59248 6192 ft 269 kts 140°
2026-05-03 23:41 33.96348 -117.57752 6567 ft 272 kts 140°
2026-05-03 23:42 33.94923 -117.56224 6919 ft 277 kts 140°
2026-05-03 23:42 33.93491 -117.54689 7487 ft 274 kts 140°
2026-05-03 23:42 33.92018 -117.53215 8506 ft 277 kts 144°
2026-05-03 23:42 33.90448 -117.51838 9448 ft 281 kts 146°
2026-05-03 23:43 33.88851 -117.50488 10296 ft 289 kts 147°
2026-05-03 23:43 33.87105 -117.49027 10453 ft 322 kts 147°
2026-05-03 23:43 33.85178 -117.47415 10700 ft 348 kts 147°
2026-05-03 23:43 33.83179 -117.45733 11610 ft 353 kts 148°
2026-05-03 23:44 33.81147 -117.44020 12077 ft 357 kts 148°
2026-05-03 23:44 33.79128 -117.42320 13128 ft 356 kts 148°
2026-05-03 23:44 33.77078 -117.40596 13856 ft 363 kts 149°
2026-05-03 23:44 33.74998 -117.38833 14569 ft 370 kts 148°
2026-05-03 23:45 33.73020 -117.36803 15275 ft 381 kts 139°
2026-05-03 23:45 33.71403 -117.34221 15902 ft 397 kts 124°
2026-05-03 23:45 33.70396 -117.31070 16516 ft 413 kts 108°
2026-05-03 23:45 33.69912 -117.27617 17079 ft 424 kts 101°
2026-05-03 23:46 33.69643 -117.24051 17625 ft 432 kts 99°
2026-05-03 23:46 33.69416 -117.20432 18175 ft 439 kts 99°
2026-05-03 23:46 33.69169 -117.16757 18695 ft 444 kts 99°
2026-05-03 23:46 33.68882 -117.13042 19220 ft 450 kts 100°
2026-05-03 23:47 33.68563 -117.09334 19699 ft 455 kts 101°
2026-05-03 23:47 33.68207 -117.05488 20189 ft 460 kts 101°
2026-05-03 23:47 33.67842 -117.01649 20630 ft 466 kts 101°
2026-05-03 23:47 33.67464 -116.97763 21129 ft 471 kts 101°
2026-05-03 23:48 33.67090 -116.93891 21600 ft 476 kts 101°
2026-05-03 23:48 33.66706 -116.89923 22076 ft 481 kts 101°
2026-05-03 23:48 33.66311 -116.85862 22590 ft 486 kts 101°
2026-05-03 23:48 33.65916 -116.81814 23032 ft 491 kts 101°
2026-05-03 23:49 33.65521 -116.77780 23522 ft 496 kts 101°
2026-05-03 23:49 33.65105 -116.73586 24012 ft 502 kts 101°
2026-05-03 23:49 33.64690 -116.69408 24461 ft 507 kts 101°
2026-05-03 23:49 33.64276 -116.65212 24958 ft 511 kts 101°
2026-05-03 23:50 33.63859 -116.60964 25476 ft 515 kts 101°
2026-05-03 23:50 33.63437 -116.56681 25963 ft 520 kts 101°
2026-05-03 23:50 33.63011 -116.52368 26560 ft 522 kts 101°
2026-05-03 23:50 33.62579 -116.48017 26939 ft 528 kts 101°
2026-05-03 23:51 33.62140 -116.43620 27397 ft 533 kts 101°
2026-05-03 23:51 33.61696 -116.39186 27817 ft 537 kts 101°
2026-05-03 23:51 33.61261 -116.34719 28216 ft 542 kts 100°
2026-05-03 23:51 33.60961 -116.30190 28611 ft 547 kts 97°
2026-05-03 23:52 33.60793 -116.25607 29046 ft 552 kts 95°
2026-05-03 23:52 33.60688 -116.20987 29455 ft 556 kts 95°
2026-05-03 23:52 33.60605 -116.16337 29813 ft 560 kts 94°
2026-05-03 23:52 33.60518 -116.11655 30192 ft 563 kts 95°
2026-05-03 23:53 33.60420 -116.06954 30624 ft 564 kts 94°
2026-05-03 23:53 33.60397 -116.02567 30969 ft 568 kts 92°
2026-05-03 23:53 33.60481 -115.97822 31370 ft 570 kts 91°
2026-05-03 23:53 33.60628 -115.93066 31759 ft 572 kts 90°
2026-05-03 23:54 33.60803 -115.88292 32110 ft 574 kts 90°
2026-05-03 23:54 33.60982 -115.83503 32427 ft 576 kts 90°
2026-05-03 23:54 33.61154 -115.78687 32741 ft 578 kts 90°
2026-05-03 23:54 33.61314 -115.73874 33088 ft 578 kts 90°
2026-05-03 23:55 33.61467 -115.69041 33346 ft 581 kts 90°
2026-05-03 23:55 33.61612 -115.64195 33640 ft 582 kts 90°
2026-05-03 23:55 33.61742 -115.59332 33928 ft 583 kts 92°
2026-05-03 23:55 33.61755 -115.54466 34216 ft 584 kts 94°
2026-05-03 23:56 33.61669 -115.49595 34530 ft 584 kts 95°
2026-05-03 23:56 33.61533 -115.44730 34910 ft 582 kts 95°
2026-05-03 23:56 33.61388 -115.39890 35298 ft 580 kts 95°
2026-05-03 23:56 33.61250 -115.35108 35666 ft 578 kts 95°
2026-05-03 23:57 33.61119 -115.30295 36038 ft 576 kts 95°
2026-05-03 23:57 33.60992 -115.25511 36416 ft 573 kts 95°
2026-05-03 23:57 33.60872 -115.20741 36676 ft 573 kts 95°
2026-05-03 23:57 33.60750 -115.15958 36739 ft 575 kts 95°
2026-05-03 23:58 33.60503 -115.06399 36758 ft 571 kts 95°
2026-05-03 23:58 33.60250 -114.96980 36757 ft 568 kts 95°
2026-05-03 23:59 33.59986 -114.87508 36760 ft 568 kts 95°
2026-05-03 23:59 33.59697 -114.78042 36757 ft 568 kts 96°
2026-05-04 00:00 33.59003 -114.68631 36758 ft 565 kts 101°
2026-05-04 00:00 33.58004 -114.59296 36757 ft 564 kts 102°
2026-05-04 00:01 33.56998 -114.49971 36758 ft 564 kts 101°
2026-05-04 00:01 33.56028 -114.40635 36757 ft 564 kts 101°
2026-05-04 00:02 33.55069 -114.31306 36761 ft 563 kts 101°
2026-05-04 00:02 33.54107 -114.21987 36766 ft 563 kts 101°
2026-05-04 00:03 33.53134 -114.12677 36773 ft 563 kts 101°
2026-05-04 00:03 33.52152 -114.03362 36775 ft 564 kts 101°
2026-05-04 00:04 33.51161 -113.94037 36777 ft 564 kts 101°
2026-05-04 00:04 33.50156 -113.84682 36777 ft 571 kts 101°
2026-05-04 00:05 33.49126 -113.75212 36778 ft 578 kts 101°
2026-05-04 00:05 33.48062 -113.65631 36784 ft 583 kts 101°
2026-05-04 00:06 33.46996 -113.55976 36787 ft 587 kts 101°
2026-05-04 00:06 33.45927 -113.46270 36792 ft 588 kts 101°
2026-05-04 00:07 33.44856 -113.36582 36795 ft 587 kts 101°
2026-05-04 00:07 33.43784 -113.26967 36797 ft 586 kts 101°
2026-05-04 00:08 33.42694 -113.17299 36803 ft 586 kts 101°
2026-05-04 00:08 33.41599 -113.07642 36804 ft 585 kts 101°
2026-05-04 00:09 33.40497 -112.97997 36823 ft 585 kts 101°
2026-05-04 00:09 33.39391 -112.88359 36833 ft 584 kts 101°
2026-05-04 00:10 33.38277 -112.78735 36817 ft 584 kts 101°
2026-05-04 00:10 33.37127 -112.69130 36819 ft 583 kts 101°
2026-05-04 00:11 33.35981 -112.59524 36828 ft 584 kts 101°
2026-05-04 00:11 33.34842 -112.49921 36817 ft 583 kts 101°
2026-05-04 00:12 33.33704 -112.40321 36816 ft 583 kts 101°
2026-05-04 00:12 33.32560 -112.30731 36807 ft 583 kts 101°
2026-05-04 00:13 33.31405 -112.21149 36798 ft 583 kts 101°
2026-05-04 00:13 33.30244 -112.11577 36789 ft 582 kts 101°
2026-05-04 00:14 33.29076 -112.01995 36787 ft 581 kts 102°
2026-05-04 00:14 33.27895 -111.92446 36795 ft 581 kts 101°
2026-05-04 00:15 33.26711 -111.82890 36803 ft 581 kts 101°
2026-05-04 00:15 33.25500 -111.73353 36803 ft 580 kts 101°
2026-05-04 00:16 33.24292 -111.63889 36818 ft 581 kts 101°
2026-05-04 00:16 33.23084 -111.54352 36828 ft 580 kts 101°
2026-05-04 00:17 33.21877 -111.44823 36832 ft 581 kts 101°
2026-05-04 00:17 33.20661 -111.35295 36840 ft 580 kts 101°
2026-05-04 00:18 33.19436 -111.25774 36840 ft 580 kts 101°
2026-05-04 00:18 33.18205 -111.16266 36850 ft 579 kts 101°
2026-05-04 00:19 33.16969 -111.06768 36868 ft 579 kts 101°
2026-05-04 00:19 33.15725 -110.97275 36885 ft 579 kts 102°
2026-05-04 00:20 33.14477 -110.87806 36895 ft 579 kts 101°
2026-05-04 00:20 33.13207 -110.78325 36904 ft 579 kts 102°
2026-05-04 00:21 33.11916 -110.68848 36927 ft 579 kts 102°
2026-05-04 00:21 33.10638 -110.59388 36950 ft 577 kts 102°
2026-05-04 00:22 33.09361 -110.49927 36971 ft 578 kts 102°
2026-05-04 00:22 33.08080 -110.40470 36972 ft 578 kts 102°
2026-05-04 00:23 33.06792 -110.31023 36971 ft 577 kts 102°
2026-05-04 00:23 33.05705 -110.23116 36967 ft 577 kts 102°
2026-05-04 00:24 33.04400 -110.13681 36966 ft 577 kts 102°
2026-05-04 00:24 33.03098 -110.04306 36969 ft 577 kts 102°
2026-05-04 00:25 33.01773 -109.94814 36963 ft 577 kts 102°
2026-05-04 00:25 33.00457 -109.85456 36958 ft 576 kts 102°
2026-05-04 00:26 32.99104 -109.76064 36948 ft 575 kts 102°
2026-05-04 00:26 32.97751 -109.66675 36945 ft 575 kts 102°
2026-05-04 00:27 32.96414 -109.57329 36943 ft 575 kts 102°
2026-05-04 00:27 32.95062 -109.47898 36941 ft 575 kts 102°
2026-05-04 00:28 32.93706 -109.38519 36941 ft 575 kts 102°
2026-05-04 00:28 32.92347 -109.29154 36954 ft 575 kts 102°
2026-05-04 00:29 32.90975 -109.19774 36962 ft 576 kts 102°
2026-05-04 00:29 32.89603 -109.10421 36978 ft 575 kts 102°
2026-05-04 00:30 32.88214 -109.01002 36984 ft 575 kts 102°
2026-05-04 00:30 32.86833 -108.91689 36997 ft 574 kts 102°
2026-05-04 00:31 32.85416 -108.82305 37009 ft 575 kts 102°
2026-05-04 00:31 32.83992 -108.72980 37010 ft 575 kts 102°
2026-05-04 00:32 32.82573 -108.63603 37023 ft 574 kts 102°
2026-05-04 00:32 32.81159 -108.54272 37065 ft 574 kts 102°
2026-05-04 00:33 32.79015 -108.40285 37084 ft 574 kts 102°
2026-05-04 00:34 32.77588 -108.30958 37100 ft 574 kts 102°
2026-05-04 00:34 32.76155 -108.21633 37118 ft 574 kts 102°
2026-05-04 00:35 32.74711 -108.12334 37108 ft 574 kts 102°
2026-05-04 00:35 32.73260 -108.03027 37105 ft 573 kts 102°
2026-05-04 00:36 32.71803 -107.93729 37106 ft 572 kts 102°
2026-05-04 00:36 32.70323 -107.84453 37106 ft 572 kts 102°
2026-05-04 00:37 32.68843 -107.75250 37094 ft 571 kts 102°
2026-05-04 00:37 32.67360 -107.65982 37071 ft 571 kts 102°
2026-05-04 00:38 32.65882 -107.56733 37062 ft 571 kts 102°
2026-05-04 00:38 32.64393 -107.47482 37063 ft 571 kts 102°
2026-05-04 00:39 32.62902 -107.38233 37063 ft 571 kts 102°
2026-05-04 00:39 32.61404 -107.28990 37073 ft 571 kts 102°
2026-05-04 00:40 32.59898 -107.19749 37065 ft 570 kts 102°
2026-05-04 00:40 32.58385 -107.10516 37071 ft 570 kts 102°
2026-05-04 00:41 32.56865 -107.01293 37072 ft 570 kts 102°
2026-05-04 00:41 32.55341 -106.92091 37073 ft 568 kts 102°
2026-05-04 00:42 32.53789 -106.82905 37073 ft 568 kts 103°
2026-05-04 00:42 32.52241 -106.73730 37072 ft 567 kts 102°
2026-05-04 00:43 32.50702 -106.64565 37073 ft 567 kts 102°
2026-05-04 00:43 32.49162 -106.55414 37067 ft 566 kts 102°
2026-05-04 00:44 32.47617 -106.46281 37073 ft 565 kts 102°
2026-05-04 00:44 32.46062 -106.37162 37073 ft 565 kts 102°
2026-05-04 00:45 32.44504 -106.28055 37066 ft 564 kts 103°
2026-05-04 00:45 32.42944 -106.18966 37062 ft 564 kts 103°
2026-05-04 00:46 32.41378 -106.09880 37068 ft 563 kts 103°
2026-05-04 00:46 32.39818 -106.00865 37080 ft 563 kts 103°
2026-05-04 00:47 32.38220 -105.91813 37080 ft 562 kts 103°
2026-05-04 00:47 32.36613 -105.82767 37083 ft 562 kts 103°
2026-05-04 00:48 32.35021 -105.73714 37082 ft 562 kts 103°
2026-05-04 00:48 32.33425 -105.64654 37082 ft 564 kts 103°
2026-05-04 00:49 32.31820 -105.55590 37082 ft 563 kts 103°
2026-05-04 00:49 32.30204 -105.46520 37076 ft 564 kts 103°
2026-05-04 00:50 32.28587 -105.37470 37060 ft 565 kts 103°
2026-05-04 00:50 32.26957 -105.28389 37042 ft 566 kts 103°
2026-05-04 00:51 32.25316 -105.19290 37052 ft 567 kts 103°
2026-05-04 00:51 32.23665 -105.10175 37043 ft 568 kts 103°
2026-05-04 00:52 32.22005 -105.01055 37039 ft 568 kts 103°
2026-05-04 00:52 32.20313 -104.91926 37029 ft 569 kts 103°
2026-05-04 00:53 32.18617 -104.82785 37041 ft 570 kts 103°
2026-05-04 00:53 32.16925 -104.73627 37038 ft 571 kts 103°
2026-05-04 00:54 32.15232 -104.64465 37039 ft 572 kts 103°
2026-05-04 00:54 32.13528 -104.55285 37037 ft 573 kts 103°
2026-05-04 00:55 32.11814 -104.46103 37033 ft 573 kts 103°
2026-05-04 00:55 32.10092 -104.36917 37032 ft 574 kts 103°
2026-05-04 00:56 32.08371 -104.27776 37033 ft 575 kts 102°
2026-05-04 00:56 32.06635 -104.18581 37036 ft 575 kts 102°
2026-05-04 00:57 32.04890 -104.09384 37033 ft 575 kts 103°
2026-05-04 00:57 32.03126 -104.00202 37043 ft 574 kts 103°
2026-05-04 00:58 32.01346 -103.91020 37033 ft 574 kts 103°
2026-05-04 00:58 31.99574 -103.81856 37037 ft 573 kts 103°
2026-05-04 00:59 31.97806 -103.72697 37040 ft 573 kts 103°
2026-05-04 00:59 31.96034 -103.63554 37042 ft 573 kts 103°
2026-05-04 01:00 31.94250 -103.54398 37035 ft 573 kts 103°
2026-05-04 01:00 31.92466 -103.45268 37027 ft 572 kts 103°
2026-05-04 01:01 31.90674 -103.36147 37031 ft 571 kts 103°
2026-05-04 01:01 31.88888 -103.27038 37029 ft 571 kts 103°
2026-05-04 01:02 31.87860 -103.17833 37028 ft 566 kts 87°
2026-05-04 01:02 31.88842 -103.08735 37039 ft 558 kts 71°
2026-05-04 01:03 31.90663 -102.99897 37033 ft 556 kts 72°
2026-05-04 01:03 31.92146 -102.90942 37033 ft 558 kts 76°
2026-05-04 01:04 31.93338 -102.81912 37045 ft 559 kts 77°
2026-05-04 01:04 31.94469 -102.72864 37046 ft 558 kts 77°
2026-05-04 01:05 31.95618 -102.63859 37045 ft 557 kts 77°
2026-05-04 01:05 31.96775 -102.54837 37056 ft 557 kts 77°
2026-05-04 01:06 31.97926 -102.45811 37055 ft 557 kts 77°
2026-05-04 01:06 31.99068 -102.36803 37057 ft 555 kts 77°
2026-05-04 01:07 32.00195 -102.27855 37051 ft 550 kts 77°
2026-05-04 01:07 32.01290 -102.18946 37044 ft 549 kts 77°
2026-05-04 01:08 32.02377 -102.10043 37055 ft 549 kts 77°
2026-05-04 01:08 32.03477 -102.01140 37057 ft 549 kts 77°
2026-05-04 01:09 32.04567 -101.92293 37057 ft 549 kts 77°
2026-05-04 01:09 32.05659 -101.83377 37053 ft 550 kts 77°
2026-05-04 01:10 32.06743 -101.74462 37054 ft 549 kts 77°
2026-05-04 01:10 32.07648 -101.66988 37054 ft 550 kts 77°
2026-05-04 01:11 32.08712 -101.58123 37056 ft 550 kts 77°
2026-05-04 01:11 32.09780 -101.49192 37053 ft 550 kts 77°
2026-05-04 01:12 32.10843 -101.40264 37052 ft 550 kts 77°
2026-05-04 01:12 32.11899 -101.31329 37053 ft 550 kts 77°
2026-05-04 01:13 32.12930 -101.22379 37053 ft 551 kts 77°
2026-05-04 01:13 32.13950 -101.13431 37052 ft 550 kts 77°
2026-05-04 01:14 32.14981 -101.04483 37055 ft 550 kts 77°
2026-05-04 01:14 32.16012 -100.95532 37056 ft 550 kts 77°
2026-05-04 01:15 32.17036 -100.86592 37061 ft 550 kts 77°
2026-05-04 01:15 32.18053 -100.77641 37064 ft 550 kts 77°
2026-05-04 01:16 32.19056 -100.68754 37065 ft 550 kts 77°
2026-05-04 01:16 32.20061 -100.59795 37064 ft 551 kts 77°
2026-05-04 01:17 32.21062 -100.50833 37069 ft 551 kts 77°
2026-05-04 01:17 32.22055 -100.41870 37066 ft 550 kts 77°
2026-05-04 01:18 32.23042 -100.32907 37066 ft 550 kts 77°
2026-05-04 01:18 32.24000 -100.23935 37064 ft 551 kts 77°
2026-05-04 01:19 32.24952 -100.14962 37053 ft 550 kts 77°
2026-05-04 01:19 32.25914 -100.06000 37046 ft 550 kts 77°
2026-05-04 01:20 32.26876 -99.97048 37036 ft 550 kts 77°
2026-05-04 01:20 32.27832 -99.88067 37033 ft 551 kts 77°
2026-05-04 01:21 32.28580 -99.79035 37033 ft 553 kts 81°
2026-05-04 01:21 32.29032 -99.70270 37059 ft 554 kts 81°
2026-05-04 01:22 32.29464 -99.61182 37053 ft 554 kts 82°
2026-05-04 01:22 32.29917 -99.52090 37052 ft 555 kts 81°
2026-05-04 01:23 32.30383 -99.42990 37055 ft 554 kts 81°
2026-05-04 01:23 32.30846 -99.33895 37064 ft 554 kts 81°
2026-05-04 01:24 32.31299 -99.24794 37064 ft 554 kts 81°
2026-05-04 01:24 32.31744 -99.15711 37064 ft 553 kts 81°
2026-05-04 01:25 32.32184 -99.06627 37066 ft 553 kts 81°
2026-05-04 01:25 32.32615 -98.97548 37067 ft 553 kts 81°
2026-05-04 01:26 32.33022 -98.88481 37062 ft 552 kts 81°
2026-05-04 01:26 32.33430 -98.79501 36857 ft 541 kts 81°
2026-05-04 01:26 32.33627 -98.75113 36523 ft 530 kts 81°
2026-05-04 01:27 32.33826 -98.70778 35956 ft 526 kts 81°
2026-05-04 01:27 32.34026 -98.66462 35249 ft 525 kts 81°
2026-05-04 01:27 32.34228 -98.62148 34566 ft 527 kts 81°
2026-05-04 01:27 32.34424 -98.57824 33870 ft 529 kts 82°
2026-05-04 01:28 32.34618 -98.53464 33172 ft 531 kts 82°
2026-05-04 01:28 32.34808 -98.49107 32437 ft 531 kts 82°
2026-05-04 01:28 32.34997 -98.44752 31720 ft 529 kts 82°
2026-05-04 01:28 32.35187 -98.40409 31008 ft 529 kts 82°
2026-05-04 01:29 32.35372 -98.36068 30295 ft 529 kts 83°
2026-05-04 01:29 32.35556 -98.31720 29564 ft 528 kts 83°
2026-05-04 01:29 32.35733 -98.27403 28812 ft 522 kts 83°
2026-05-04 01:29 32.35903 -98.23155 28048 ft 514 kts 84°
2026-05-04 01:30 32.36071 -98.18958 27293 ft 506 kts 84°
2026-05-04 01:30 32.36237 -98.14850 26552 ft 496 kts 84°
2026-05-04 01:30 32.36402 -98.10805 25828 ft 488 kts 84°
2026-05-04 01:30 32.36564 -98.06841 25104 ft 479 kts 85°
2026-05-04 01:31 32.36721 -98.02935 24396 ft 471 kts 85°
2026-05-04 01:31 32.36874 -97.99109 23715 ft 462 kts 85°
2026-05-04 01:31 32.37023 -97.95351 23240 ft 452 kts 85°
2026-05-04 01:31 32.37168 -97.91651 23031 ft 448 kts 85°
2026-05-04 01:32 32.37311 -97.87983 22899 ft 446 kts 85°
2026-05-04 01:32 32.37452 -97.84328 22150 ft 443 kts 85°
2026-05-04 01:32 32.37588 -97.80750 21426 ft 428 kts 85°
2026-05-04 01:32 32.37719 -97.77276 20752 ft 418 kts 85°
2026-05-04 01:33 32.37850 -97.73869 20094 ft 411 kts 85°
2026-05-04 01:33 32.37978 -97.70518 19455 ft 405 kts 85°
2026-05-04 01:33 32.38107 -97.67220 18816 ft 399 kts 85°
2026-05-04 01:33 32.38455 -97.63996 18240 ft 392 kts 73°
2026-05-04 01:34 32.39501 -97.61103 17618 ft 377 kts 53°
2026-05-04 01:34 32.41159 -97.58745 17190 ft 371 kts 43°
2026-05-04 01:34 32.43029 -97.56631 16983 ft 369 kts 40°
2026-05-04 01:34 32.44928 -97.54596 16934 ft 369 kts 39°
2026-05-04 01:35 32.46827 -97.52553 16858 ft 368 kts 40°
2026-05-04 01:35 32.48704 -97.50497 16780 ft 368 kts 40°
2026-05-04 01:35 32.50568 -97.48423 16695 ft 368 kts 41°
2026-05-04 01:35 32.52416 -97.46343 16434 ft 368 kts 41°
2026-05-04 01:36 32.54257 -97.44252 15787 ft 364 kts 41°
2026-05-04 01:36 32.56072 -97.42182 15178 ft 360 kts 42°
2026-05-04 01:36 32.57853 -97.40142 14669 ft 353 kts 42°
2026-05-04 01:36 32.59609 -97.38129 14065 ft 350 kts 42°
2026-05-04 01:37 32.61347 -97.36136 13578 ft 344 kts 43°
2026-05-04 01:37 32.63045 -97.34187 13285 ft 338 kts 43°
2026-05-04 01:37 32.64702 -97.32287 13173 ft 323 kts 43°
2026-05-04 01:37 32.66281 -97.30473 13050 ft 308 kts 43°
2026-05-04 01:38 32.67774 -97.28755 12967 ft 301 kts 43°
2026-05-04 01:38 32.69297 -97.26997 12892 ft 299 kts 43°
2026-05-04 01:38 32.70776 -97.25288 12514 ft 296 kts 43°
2026-05-04 01:38 32.72256 -97.23578 12174 ft 297 kts 43°
2026-05-04 01:39 32.73724 -97.21880 12029 ft 295 kts 43°
2026-05-04 01:39 32.75158 -97.20222 12015 ft 284 kts 43°
2026-05-04 01:39 32.76531 -97.18636 12007 ft 267 kts 43°
2026-05-04 01:39 32.77980 -97.17330 11998 ft 259 kts 24°
2026-05-04 01:40 32.79695 -97.16812 12017 ft 255 kts
2026-05-04 01:40 32.81481 -97.16712 12008 ft 258 kts 359°
2026-05-04 01:40 32.83272 -97.16688 11912 ft 258 kts 359°
2026-05-04 01:40 32.85063 -97.16676 11610 ft 258 kts 359°
2026-05-04 01:41 32.86857 -97.16663 11236 ft 258 kts 359°
2026-05-04 01:41 32.88643 -97.16648 10866 ft 257 kts 359°
2026-05-04 01:41 32.90435 -97.16631 10486 ft 257 kts 359°
2026-05-04 01:41 32.92224 -97.16614 10112 ft 257 kts 358°
2026-05-04 01:42 32.94011 -97.16595 9741 ft 257 kts 358°
2026-05-04 01:42 32.95804 -97.16575 9360 ft 258 kts 358°
2026-05-04 01:42 32.97595 -97.16554 8988 ft 258 kts 358°
2026-05-04 01:42 32.99393 -97.16536 8614 ft 258 kts 358°
2026-05-04 01:43 33.01193 -97.16518 8239 ft 259 kts 358°
2026-05-04 01:43 33.02995 -97.16499 7868 ft 259 kts 358°
2026-05-04 01:43 33.04803 -97.16478 7492 ft 260 kts 358°
2026-05-04 01:43 33.06616 -97.16460 7118 ft 261 kts 358°
2026-05-04 01:44 33.08430 -97.16438 6747 ft 261 kts 358°
2026-05-04 01:44 33.10251 -97.16416 6364 ft 261 kts 359°
2026-05-04 01:44 33.12033 -97.16389 6235 ft 251 kts 358°
2026-05-04 01:44 33.13786 -97.16364 5877 ft 252 kts 359°
2026-05-04 01:45 33.15545 -97.16342 5500 ft 254 kts 358°
2026-05-04 01:45 33.17312 -97.16328 5124 ft 255 kts 358°
2026-05-04 01:45 33.20860 -97.16193 4360 ft 257 kts 12°
2026-05-04 01:46 33.22438 -97.15227 4072 ft 255 kts 44°
2026-05-04 01:46 33.23369 -97.13530 3995 ft 239 kts 76°
2026-05-04 01:46 33.23441 -97.11616 3999 ft 230 kts 108°
2026-05-04 01:46 33.22721 -97.09975 4036 ft 221 kts 133°
2026-05-04 01:47 33.21710 -97.08581 4023 ft 223 kts 135°
2026-05-04 01:47 33.20678 -97.07206 4001 ft 218 kts 136°
2026-05-04 01:47 33.19724 -97.05928 3978 ft 196 kts 137°
2026-05-04 01:47 33.18639 -97.05151 3974 ft 180 kts 175°
2026-05-04 01:48 33.17389 -97.05176 4039 ft 181 kts 187°
2026-05-04 01:48 33.16140 -97.05284 4003 ft 180 kts 185°
2026-05-04 01:48 33.14879 -97.05337 3995 ft 181 kts 183°
2026-05-04 01:48 33.13622 -97.05341 4005 ft 181 kts 182°
2026-05-04 01:49 33.12358 -97.05345 4001 ft 181 kts 182°
2026-05-04 01:49 33.11097 -97.05351 4006 ft 182 kts 182°
2026-05-04 01:49 33.09837 -97.05356 4018 ft 180 kts 182°
2026-05-04 01:49 33.08575 -97.05360 3876 ft 180 kts 183°
2026-05-04 01:50 33.07388 -97.05365 3633 ft 165 kts 182°
2026-05-04 01:50 33.06247 -97.05372 3434 ft 163 kts 182°
2026-05-04 01:50 33.05111 -97.05377 3235 ft 162 kts 182°
2026-05-04 01:50 33.03985 -97.05385 3029 ft 162 kts 182°
2026-05-04 01:51 33.02861 -97.05392 2813 ft 159 kts 182°
2026-05-04 01:51 33.01777 -97.05405 2602 ft 154 kts 182°
2026-05-04 01:51 33.00706 -97.05426 2375 ft 154 kts 181°
2026-05-04 01:51 32.99642 -97.05442 2146 ft 152 kts 181°
2026-05-04 01:52 32.98584 -97.05446 1987 ft 153 kts 180°
2026-05-04 01:52 32.97526 -97.05438 1812 ft 152 kts 180°
2026-05-04 01:52 32.96464 -97.05449 1615 ft 153 kts 181°
2026-05-04 01:52 32.95406 -97.05463 1414 ft 152 kts 180°
2026-05-04 01:53 32.94344 -97.05461 1212 ft 152 kts 179°
2026-05-04 01:53 32.93290 -97.05450 992 ft 153 kts 180°
2026-05-04 01:53 32.92239 -97.05465 798 ft 150 kts 180°
2026-05-04 01:53 32.91194 -97.05466 630 ft 150 kts 180°
2026-05-04 01:54 32.90255 -97.05471 620 ft 121 kts 180°
2026-05-04 01:54 32.89493 -97.05474 619 ft 99 kts 180°
2026-05-04 01:54 32.89026 -97.05477 607 ft 32 kts 180°
2026-05-04 01:54 32.88832 -97.05477 600 ft 24 kts 180°
2026-05-04 01:55 32.88736 -97.05481 600 ft 10 kts 194°
2026-05-04 01:55 32.88712 -97.05527 601 ft 7 kts 268°
2026-05-04 01:55 32.88744 -97.05602 603 ft 13 kts 309°
2026-05-04 01:55 32.88816 -97.05689 618 ft 17 kts 318°
2026-05-04 01:56 32.88909 -97.05780 608 ft 17 kts 332°
2026-05-04 01:56 32.89034 -97.05795 618 ft 19 kts
2026-05-04 01:56 32.89153 -97.05795 607 ft 16 kts
2026-05-04 01:56 32.89254 -97.05794 610 ft 14 kts
2026-05-04 01:57 32.89373 -97.05794 607 ft 18 kts
2026-05-04 01:57 32.89493 -97.05793 616 ft 17 kts
2026-05-04 01:57 32.89624 -97.05792 617 ft 21 kts
2026-05-04 01:57 32.89763 -97.05792 615 ft 19 kts 360°
2026-05-04 01:58 32.89890 -97.05792 622 ft 17 kts
2026-05-04 01:58 32.89997 -97.05791 622 ft 14 kts
2026-05-04 01:58 32.90062 -97.05791 626 ft 16 kts
2026-05-04 01:58 32.90186 -97.05789 615 ft 20 kts
2026-05-04 01:59 32.90352 -97.05789 624 ft 26 kts
2026-05-04 01:59 32.90519 -97.05788 620 ft 23 kts
2026-05-04 01:59 32.90666 -97.05788 623 ft 20 kts
2026-05-04 01:59 32.90801 -97.05788 628 ft 18 kts
2026-05-04 02:00 32.90921 -97.05786 635 ft 17 kts
2026-05-04 02:00 32.91069 -97.05786 634 ft 15 kts
2026-05-04 02:00 32.91136 -97.05785 620 ft 14 kts
2026-05-04 02:00 32.91214 -97.05800 634 ft 8 kts 324°
2026-05-04 02:01 32.91231 -97.05838 632 ft 4 kts 296°
2026-05-04 02:01 32.91270 -97.05866 625 ft 10 kts 347°
2026-05-04 02:01 32.91367 -97.05870 625 ft 17 kts
2026-05-04 02:01 32.91484 -97.05869 632 ft 16 kts
2026-05-04 02:02 32.91565 -97.05882 629 ft 8 kts 324°
2026-05-04 02:02 32.91586 -97.05939 636 ft 10 kts 281°
2026-05-04 02:02 32.91588 -97.06023 627 ft 9 kts 268°
2026-05-04 02:02 32.91585 -97.06058 628 ft 1 kts 253°
2026-05-04 02:03 32.91574 -97.06065 638 ft 2 kts 210°
2026-05-04 02:03 32.91560 -97.06071 630 ft 4 kts 198°
2026-05-04 02:03 32.91537 -97.06075 625 ft 2 kts 185°
2026-05-04 02:03 32.91534 -97.06075 636 ft 0 kts 185°